Weather History for KFWZ - April, 2014

Change the Weather History Date:

Monday, April 28, 2014

  Actual Average (KLND) Record (KLND)
Temperature  
Mean Temperature 28 °F 48 °F  
Max Temperature 32 °F 60 °F 81 °F (2000)
Min Temperature 23 °F 35 °F 14 °F (1984)
Degree Days  
Heating Degree Days 38 17  
Month to date heating degree days 600  
Since 1 July heating degree days 7219  
Cooling Degree Days 0 0  
Month to date cooling degree days 0  
Year to date cooling degree days 0  
Moisture  
Dew Point 14 °F    
Average Humidity 59    
Maximum Humidity 93    
Minimum Humidity 21    
Precipitation  
Precipitation 0.00 in 0.08 in 1.12 in (1944)
Month to date precipitation 1.72  
Year to date precipitation 3.87  
Snow  
Snow 0.00 in 0.50 in - ()
Month to date snowfall 15.8  
Since 1 July snowfall 85.5  
Snow Depth -    
Sea Level Pressure  
Sea Level Pressure 29.85 in    
Wind  
Wind Speed 11 mph (NW)    
Max Wind Speed 25 mph    
Max Gust Speed 31 mph    
Visibility 9 miles    
Events Snow    
T = Trace of Precipitation, MM = Missing Value Source: NWS Daily Summary

Daily Weather History Graph

Daily Weather History Graph

Search for Another Location

Airport or City:

Trip Planner

Search our weather history database for the weather conditions in past years. The results will help you decide how hot, cold, wet, or windy it might be!

Date:

Astronomy

Apr. 28, 2014 Rise Set
Actual Time 6:14 AM MDT 8:11 PM MDT
Civil Twilight 5:43 AM MDT 8:42 PM MDT
Nautical Twilight 5:06 AM MDT 9:19 PM MDT
Astronomical Twilight 4:26 AM MDT 10:00 PM MDT
Moon 5:55 AM MDT (4/28) 7:52 PM MDT (4/28)
Length of Visible Light 14h 58m
Length of Day
13h 57m
Waning Crescent, 0% of the Moon is Illuminated
Apr 28
Waning Crescent
Apr 29
New
May 6
First Quarter
May 14
Full
May 21
Last Quarter

Hourly Weather History & Observations

Time (MDT) Temp. Windchill Dew Point Humidity Pressure Visibility Wind Dir Wind Speed Gust Speed Precip Events Conditions
12:15 AM 28.4 °F 20.4 °F 19.4 °F 69% - 10.0 mi West 8.1 mph - N/A   Mostly Cloudy
12:35 AM 28.4 °F 21.2 °F 17.6 °F 64% - 10.0 mi West 6.9 mph - N/A   Mostly Cloudy
12:55 AM 26.6 °F 21.2 °F 17.6 °F 69% - 10.0 mi WSW 4.6 mph - N/A   Scattered Clouds
1:15 AM 26.6 °F 16.2 °F 19.4 °F 74% - 10.0 mi West 11.5 mph - N/A   Clear
1:35 AM 26.6 °F 15.7 °F 19.4 °F 74% - 10.0 mi West 12.7 mph - N/A   Clear
2:15 AM 26.6 °F 15.7 °F 17.6 °F 69% - 10.0 mi WSW 12.7 mph - N/A   Clear
2:35 AM 26.6 °F 16.2 °F 19.4 °F 74% - 10.0 mi West 11.5 mph - N/A   Clear
2:55 AM 26.6 °F 18.2 °F 17.6 °F 69% - 10.0 mi WSW 8.1 mph - N/A   Clear
3:15 AM 26.6 °F 17.5 °F 17.6 °F 69% - 10.0 mi WSW 9.2 mph - N/A   Clear
3:35 AM 26.6 °F 19.1 °F 17.6 °F 69% - 10.0 mi WSW 6.9 mph - N/A   Clear
3:55 AM 24.8 °F 16.1 °F 15.8 °F 69% - 10.0 mi West 8.1 mph - N/A   Clear
4:15 AM 24.8 °F 20.5 °F 14.0 °F 64% - 10.0 mi West 3.5 mph - N/A   Clear
4:35 AM 24.8 °F 19.1 °F 14.0 °F 64% - 10.0 mi West 4.6 mph - N/A   Clear
4:55 AM 23.0 °F 15.8 °F 15.8 °F 74% - 10.0 mi WSW 5.8 mph - N/A   Clear
5:15 AM 23.0 °F 15.8 °F 14.0 °F 68% - 10.0 mi West 5.8 mph - N/A   Clear
5:35 AM 23.0 °F 15.8 °F 14.0 °F 68% - 10.0 mi West 5.8 mph - N/A   Clear
6:55 AM 23.0 °F 13.1 °F 12.2 °F 63% - 10.0 mi WSW 9.2 mph - N/A   Clear
7:15 AM 23.0 °F 11.7 °F 14.0 °F 68% - 10.0 mi WSW 11.5 mph 16.1 mph N/A   Clear
7:35 AM 24.8 °F 14.6 °F 12.2 °F 59% - 10.0 mi West 10.4 mph - N/A   Clear
7:55 AM 26.6 °F 16.2 °F 8.6 °F 47% - 10.0 mi West 11.5 mph 17.3 mph N/A   Clear
8:15 AM 26.6 °F 16.8 °F 8.6 °F 47% - 10.0 mi West 10.4 mph - N/A   Clear
8:35 AM 28.4 °F 18.5 °F 5.0 °F 37% 29.74 in 10.0 mi West 11.5 mph 19.6 mph N/A   Clear
8:55 AM 30.2 °F 18.1 °F -4.0 °F 23% 29.74 in 10.0 mi NW 18.4 mph 26.5 mph N/A   Clear
9:15 AM 32.0 °F 18.6 °F -4.0 °F 21% 29.75 in 10.0 mi NNW 25.3 mph 29.9 mph N/A   Clear
9:35 AM 30.2 °F 20.2 °F -4.0 °F 23% 29.76 in 10.0 mi NW 12.7 mph 31.1 mph N/A   Clear
9:55 AM 32.0 °F 20.5 °F -4.0 °F 21% 29.76 in 10.0 mi NW 18.4 mph 26.5 mph N/A   Clear
10:15 AM 32.0 °F 23.0 °F -4.0 °F 21% 29.77 in 10.0 mi NW 11.5 mph 25.3 mph N/A   Scattered Clouds
10:35 AM 32.0 °F 22.5 °F -4.0 °F 21% 29.78 in 10.0 mi WNW 12.7 mph 24.2 mph N/A   Clear
10:55 AM 32.0 °F 21.6 °F -4.0 °F 21% 29.78 in 10.0 mi NW 15.0 mph 28.8 mph N/A   Clear
11:15 AM 32.0 °F 22.1 °F -4.0 °F 21% 29.78 in 10.0 mi NW 13.8 mph 21.9 mph N/A   Scattered Clouds
11:35 AM 32.0 °F 24.8 °F -2.2 °F 23% 29.79 in 10.0 mi NNW 8.1 mph 17.3 mph N/A   Mostly Cloudy
11:55 AM 32.0 °F 22.5 °F 3.2 °F 30% 29.79 in 10.0 mi North 12.7 mph 21.9 mph N/A   Overcast
12:15 PM 32.0 °F 21.6 °F 5.0 °F 32% 29.79 in 10.0 mi North 15.0 mph 21.9 mph N/A   Overcast
12:35 PM 32.0 °F 22.5 °F 5.0 °F 32% 29.79 in 10.0 mi North 12.7 mph 17.3 mph N/A   Overcast
12:55 PM 32.0 °F 20.8 °F 5.0 °F 32% 29.80 in 10.0 mi North 17.3 mph 27.6 mph N/A   Overcast
1:15 PM 32.0 °F 20.8 °F 5.0 °F 32% 29.80 in 10.0 mi North 17.3 mph 23.0 mph N/A   Overcast
1:55 PM 32.0 °F 20.5 °F 5.0 °F 32% 29.82 in 10.0 mi NNW 18.4 mph 29.9 mph N/A   Overcast
2:15 PM 32.0 °F 22.5 °F 5.0 °F 32% 29.83 in 10.0 mi North 12.7 mph 20.7 mph N/A   Overcast
2:35 PM 32.0 °F 20.5 °F 5.0 °F 32% 29.83 in 10.0 mi NNW 18.4 mph 24.2 mph N/A   Overcast
3:15 PM 32.0 °F 22.5 °F 21.2 °F 64% 29.86 in 10.0 mi NNE 12.7 mph 23.0 mph N/A   Overcast
3:35 PM 32.0 °F 20.5 °F 19.4 °F 60% 29.87 in 7.0 mi North 18.4 mph 27.6 mph N/A   Overcast
3:55 PM 30.2 °F 19.3 °F 19.4 °F 64% 29.89 in 10.0 mi North 15.0 mph 29.9 mph N/A   Overcast
4:15 PM 32.0 °F 22.1 °F 19.4 °F 60% 29.89 in 10.0 mi North 13.8 mph 23.0 mph N/A   Overcast
4:35 PM 32.0 °F 22.1 °F 19.4 °F 60% 29.90 in 10.0 mi North 13.8 mph 25.3 mph N/A   Overcast
4:55 PM 30.2 °F 18.1 °F 19.4 °F 64% 29.91 in 10.0 mi North 18.4 mph 28.8 mph N/A   Overcast
5:15 PM 30.2 °F 19.3 °F 21.2 °F 69% 29.92 in 7.0 mi North 15.0 mph 24.2 mph N/A   Overcast
5:35 PM 30.2 °F 21.9 °F 21.2 °F 69% 29.94 in 7.0 mi NNE 9.2 mph 19.6 mph N/A Snow Light Snow
5:55 PM 28.4 °F 17.0 °F 26.6 °F 93% 29.96 in 1.0 mi NNE 15.0 mph 20.7 mph N/A Snow Light Snow
6:15 PM 26.6 °F 14.3 °F 24.8 °F 93% 29.96 in 0.8 mi North 16.1 mph 20.7 mph N/A Snow Light Snow
6:35 PM 28.4 °F 19.1 °F 24.8 °F 86% 29.97 in 10.0 mi North 10.4 mph - N/A   Overcast
6:55 PM 28.4 °F 19.1 °F 23.0 °F 80% 29.99 in 10.0 mi North 10.4 mph 21.9 mph N/A   Overcast
7:15 PM 26.6 °F 16.8 °F 23.0 °F 86% 30.00 in 3.0 mi North 10.4 mph - N/A Snow Light Snow
7:35 PM 26.6 °F 16.2 °F 23.0 °F 86% 30.01 in 10.0 mi NNW 11.5 mph - N/A   Overcast
7:55 PM 26.6 °F 17.5 °F 23.0 °F 86% 30.02 in 3.0 mi North 9.2 mph - N/A Snow Light Snow
8:15 PM 26.6 °F 15.7 °F 23.0 °F 86% - 7.0 mi North 12.7 mph - N/A   Overcast
8:35 PM 26.6 °F 15.2 °F 23.0 °F 86% - 10.0 mi NNW 13.8 mph - N/A   Overcast
8:55 PM 26.6 °F 13.1 °F 23.0 °F 86% - 5.0 mi NNW 19.6 mph 24.2 mph N/A Snow Light Snow
9:15 PM 26.6 °F 14.3 °F 19.4 °F 74% - 10.0 mi NW 16.1 mph 24.2 mph N/A   Mostly Cloudy
9:35 PM 26.6 °F 15.2 °F 19.4 °F 74% - 10.0 mi NW 13.8 mph 20.7 mph N/A   Mostly Cloudy
9:55 PM 26.6 °F 17.5 °F 19.4 °F 74% - 10.0 mi NW 9.2 mph - N/A   Mostly Cloudy
10:15 PM 26.6 °F 15.2 °F 19.4 °F 74% - 10.0 mi NW 13.8 mph 20.7 mph N/A   Mostly Cloudy
10:35 PM 26.6 °F 15.7 °F 17.6 °F 69% - 10.0 mi NW 12.7 mph 19.6 mph N/A   Scattered Clouds
10:55 PM 26.6 °F 14.7 °F 19.4 °F 74% - 10.0 mi NNW 15.0 mph - N/A   Scattered Clouds
11:15 PM 26.6 °F 14.3 °F 17.6 °F 69% - 10.0 mi NNW 16.1 mph - N/A   Mostly Cloudy
11:35 PM 26.6 °F 13.8 °F 17.6 °F 69% - 10.0 mi NNW 17.3 mph 25.3 mph N/A   Scattered Clouds
11:55 PM 26.6 °F 14.3 °F 17.6 °F 69% - 10.0 mi NNW 16.1 mph - N/A   Clear